Jogging des Vergers (Aubel) 01/03/2015 - 8,7 km
Mise à jour le : 27/04/2015 à 22:00
Classement définitif, aucune correction possible
Place Nom Prénom Dossard Temps Vitesse Allure Place. Cat. Catégorie
1 LEFEBVRE LUDWIG 543 28:05 18,58 3:13 1 Séniors
2 TERRITO JOAKIM 940 28:40 18,20 3:17 2 Séniors
3 VANDEPUTTE EDDY 76 29:11 17,88 3:21 1 Vétérans 1
4 MICHEL LUC 1 29:21 17,78 3:22 3 Séniors
5 GOUBAU JOHAN 1154 29:50 17,49 3:25 4 Séniors
6 DETHIER JEROME 231 30:20 17,20 3:29 5 Séniors
7 DION CYPRIEN 1251 30:29 17,12 3:30 6 Séniors
8 FICHER PIERRE 339 30:46 16,96 3:32 7 Séniors
9 BRASSEUR GREGORY 107 31:10 16,74 3:35 8 Séniors
10 LUXEN ANTOINE 598 31:19 16,66 3:36 9 Séniors
11 THERER GERY 757 31:32 16,55 3:37 10 Séniors
12 SCHOLZEN CHRISTOPHE 596 31:43 16,46 3:38 11 Séniors
13 DENOOZ DANIEL 219 31:50 16,39 3:39 1 Vétérans 2
14 BERTRAND CYRIL 1223 31:57 16,34 3:40 12 Séniors
15 ROCK NICOLAS 789 32:02 16,29 3:40 13 Séniors
16 NIZET KEVIN 522 32:03 16,28 3:41 14 Séniors
17 GROSDENT JONATHAN 418 32:09 16,23 3:41 15 Séniors
18 BRONLET BENOIT 119 32:15 16,18 3:42 2 Vétérans 1
19 HERZET FREDERICK 4 32:23 16,11 3:43 16 Séniors
20 HENDRICK JULIEN 347 32:25 16,10 3:43 17 Séniors
21 BEUKEN SERGE 80 32:28 16,08 3:43 3 Vétérans 1
22 DORTHU OLIVIER 930 32:29 16,07 3:44 4 Vétérans 1
23 LOPEZ-NAVA DIDIER 591 32:30 16,06 3:44 5 Vétérans 1
24 STOLLENBERG JORDI 622 32:31 16,05 3:44 18 Séniors
25 POHL DIDIER 702 32:34 16,02 3:44 2 Vétérans 2
26 WIERTZ XAVIER 780 32:36 16,00 3:44 19 Séniors
27 DENOZ MAXIME 1112 32:40 15,98 3:45 20 Séniors
28 HOCHSTENBACH FABIAN 980 32:41 15,96 3:45 6 Vétérans 1
29 WALRAFF WALLY 678 32:43 15,95 3:45 7 Vétérans 1
30 JACOB-PAQUAY ERIC 373 32:49 15,91 3:46 8 Vétérans 1
31 HENDRICK CHRISTOPHER 859 32:53 15,87 3:46 21 Séniors
32 PIRON JULIEN 1153 32:56 15,85 3:47 22 Séniors
33 CANISIUS PIERRE-OLIVIER 1056 32:57 15,84 3:47 9 Vétérans 1
34 KAILS REMY 505 32:58 15,83 3:47 23 Séniors
35 NOEL JULIEN 663 32:59 15,82 3:47 24 Séniors
36 DELCOUR PHILIPPE 190 33:01 15,80 3:47 10 Vétérans 1
37 VERVIER ARNAUD 770 33:04 15,78 3:48 25 Séniors
38 CLERDENT NICOLAS 161 33:11 15,73 3:48 26 Séniors
39 LICATA GIOVANI 798 33:13 15,71 3:49 11 Vétérans 1
40 ROZEIN JURGEN 589 33:15 15,69 3:49 3 Vétérans 2
41 CORMAN XAVIER 178 33:19 15,66 3:49 27 Séniors
42 VANHULST BENOIT 662 33:25 15,62 3:50 28 Séniors
43 JASPAR JULIEN 382 33:27 15,60 3:50 29 Séniors
44 LODOMEZ OLIVIER 454 33:34 15,54 3:51 30 Séniors
45 DOURCY QUENTIN 328 33:40 15,50 3:52 31 Séniors
46 LEGROS RAPHAEL 955 33:41 15,50 3:52 32 Séniors
47 VANLOO XAVIER 1048 33:42 15,49 3:52 33 Séniors
48 DELREZ DIDIER 203 33:43 15,48 3:52 12 Vétérans 1
49 WILLEM BERNARD 782 33:44 15,47 3:52 34 Séniors
50 ESTEBEZ ANDRE 335 33:45 15,46 3:52 13 Vétérans 1
51 D'AFFNAY JEAN-FRANCOIS 162 33:46 15,46 3:52 35 Séniors
52 HECK MARC 345 33:47 15,44 3:53 14 Vétérans 1
53 CANNARSA MICHEL 838 33:50 15,43 3:53 15 Vétérans 1
54 DEMONCEAU JEAN LUC 917 33:51 15,42 3:53 16 Vétérans 1
55 LOOZEN MARUIN 1187 33:52 15,41 3:53 36 Séniors
56 ANDRES GABY 44 33:53 15,40 3:53 1 Ainées 1
57 GODELAINE STEPHANE 323 33:55 15,39 3:53 37 Séniors
58 KEIL ALAIN 506 33:59 15,36 3:54 17 Vétérans 1
59 DUMOULIN MAXIME 250 34:01 15,34 3:54 38 Séniors
60 GERON DAVID 1021 34:03 15,32 3:54 18 Vétérans 1
61 XHONNEUX JEAN-PIERRE 1254 34:06 15,31 3:55 19 Vétérans 1
62 GEERTS ROB 1089 34:07 15,29 3:55 39 Séniors
63 TOUSSAINT BERTRAND 1206 34:10 15,28 3:55 40 Séniors
64 BAGUETTE DENIS 55 34:12 15,26 3:55 41 Séniors
65 DEGUELDRE JEAN LOUIS 999 34:13 15,25 3:56 4 Vétérans 2
66 LEGRAND JEAN MARC 925 34:15 15,24 3:56 5 Vétérans 2
67 KEYDENER CHRISTIAN 513 34:18 15,21 3:56 20 Vétérans 1
68 HUPPERETZ PATRICK 865 34:23 15,18 3:57 42 Séniors
69 JACQUINET ERIC 1198 34:28 15,14 3:57 43 Séniors
70 LORQUET JEAN - MARC 10 34:31 15,12 3:58 6 Vétérans 2
71 FASSIN JEAN-PHILIPPE 286 34:35 15,09 3:58 44 Séniors
72 KOCH PHILIPPE 521 34:43 15,03 3:59 21 Vétérans 1
73 BRUWIER JEAN-PAUL 899 34:45 15,02 3:59 22 Vétérans 1
74 THIRIFAYS DELPHINE 968 34:47 15,00 3:59 1 Espoirs Filles
75 DOUVEN THOMAS 245 34:49 14,99 4:00 45 Séniors
76 MACHIELS JULIEN 1155 34:50 14,98 4:00 46 Séniors
77 LECLERCQ JORDAN 429 34:51 14,97 4:00 47 Séniors
78 LEHAEN PIERRE-OLIVIER 436 34:54 14,95 4:00 23 Vétérans 1
79 DOYEN LUDOVIC 985 34:57 14,93 4:01 1 Espoirs Garçons
80 GOMZE MICHEL 272 35:00 14,91 4:01 24 Vétérans 1
81 JAMAR CHRISTOPHE 948 35:02 14,90 4:01 48 Séniors
82 HAINE GAEL 1258 35:04 14,88 4:01 49 Séniors
83 LOURTHE THIBAUT 810 35:09 14,84 4:02 50 Séniors
84 XHONNEUX RENAUD 1094 35:11 14,83 4:02 51 Séniors
85 JACQUEMOTTE LUDOVIC 375 35:13 14,82 4:02 52 Séniors
86 DAMBLON PATRICK 167 35:15 14,81 4:03 25 Vétérans 1
87 LACROIX JULIEN 1192 35:17 14,79 4:03 1 H Sans Cat
88 DEWIT CHRISTOPHE 1033 35:18 14,78 4:03 26 Vétérans 1
89 NAWYN BENJAMIN 5 35:20 14,77 4:03 27 Vétérans 1
90 HEUSE FRANCK 459 35:20 14,77 4:03 7 Vétérans 2
91 CIOMEK FREDERIC 1001 35:21 14,76 4:03 28 Vétérans 1
92 ENGEL MARC 934 35:22 14,76 4:03 53 Séniors
93 VILLERS FRANCIS 1019 35:22 14,75 4:04 29 Vétérans 1
94 EVRARD FRANCOISE 338 35:24 14,74 4:04 1 Dames
95 WERTZ FLORENT 685 35:25 14,74 4:04 2 Espoirs Garçons
96 BOGAERT CHARLY 94 35:26 14,73 4:04 8 Vétérans 2
97 LEGROS FRANCIS 431 35:27 14,72 4:04 30 Vétérans 1
98 VANDENBORRE JULIEN 657 35:28 14,72 4:04 54 Séniors
99 BAILLEUX MARIE 1152 35:30 14,70 4:04 2 Dames
100 SONTAG THIERRY 615 35:31 14,69 4:05 55 Séniors
101 XHAUFLAIRE CHRISTOPHE 1179 35:33 14,68 4:05 56 Séniors
102 SOLITRO MICHEL 1053 35:34 14,67 4:05 9 Vétérans 2
103 VANHOOF GUILLAUME 1162 35:35 14,67 4:05 3 Espoirs Garçons
104 SIEBENBOUR MICHEL 947 35:38 14,65 4:05 31 Vétérans 1
105 CABAY JEAN-MARC 1099 35:39 14,64 4:05 32 Vétérans 1
106 PAULY DIDIER 1079 35:39 14,64 4:05 33 Vétérans 1
107 ESTE ROMAIN 1104 35:43 14,61 4:06 57 Séniors
108 DELL'AQUILA VITO 1054 35:50 14,56 4:07 10 Vétérans 2
109 SOHET JEAN-MICHEL 1028 35:54 14,54 4:07 58 Séniors
110 TOUSSAINT MAXIME 1197 35:55 14,53 4:07 59 Séniors
111 JENNES BENJAMIN 1129 35:57 14,52 4:07 60 Séniors
112 D'HAENE OLIVIER 235 35:57 14,51 4:08 61 Séniors
113 LEMAIRE CEDRIC 440 35:59 14,50 4:08 62 Séniors
114 BARON FERNANDO 64 36:00 14,49 4:08 63 Séniors
115 DUYSENS ARNAUD 1072 36:03 14,48 4:08 64 Séniors
116 OURY PATRICE 530 36:09 14,44 4:09 34 Vétérans 1
117 LEMAIRE GUILLAUME 441 36:19 14,37 4:10 65 Séniors
118 HENRARD CEDRIC 348 36:22 14,35 4:10 66 Séniors
119 PONCELET NICOLAS 703 36:23 14,34 4:10 67 Séniors
120 WEICKMANS DAVID 684 36:24 14,34 4:11 68 Séniors
121 VAN HAUTEN KEVIN 650 36:25 14,33 4:11 69 Séniors
122 MASSOTTE CLAUDE 1029 36:26 14,32 4:11 35 Vétérans 1
123 DUMONT FRANCOIS 902 36:28 14,31 4:11 4 Espoirs Garçons
124 MARTIN VIRSEDA NICOLAS 920 36:29 14,31 4:11 70 Séniors
125 COLSON DAVID 148 36:29 14,30 4:11 71 Séniors
126 PESSER ALINE 11 36:30 14,30 4:11 2 Ainées 1
127 LEMARCOTTE JOHNNY 443 36:30 14,30 4:11 36 Vétérans 1
128 VERDIN FRED 1035 36:31 14,29 4:11 72 Séniors
129 MELEN ARNAUD 957 36:32 14,28 4:12 73 Séniors
130 BELLEFLAMME MARC 990 36:33 14,28 4:12 11 Vétérans 2
131 BLANCHY GILLES 85 36:33 14,28 4:12 12 Vétérans 2
132 LEJEUNE JEAN-FRANCOIS 1225 36:34 14,27 4:12 74 Séniors
133 GARROI CYRILLE 304 36:36 14,26 4:12 75 Séniors
134 TAMBURRINI RAPHAEL 754 36:38 14,24 4:12 37 Vétérans 1
135 TONKA DORIAN 906 36:43 14,22 4:13 5 Espoirs Garçons
136 VANDEN BULCK BERTRAND 766 36:45 14,20 4:13 76 Séniors
137 SKUPIEWSKI GREGORY 1059 36:48 14,18 4:13 77 Séniors
138 PIQUERAY STÉPHANE 874 36:49 14,18 4:13 13 Vétérans 2
139 TONKA EDDY 904 36:50 14,17 4:14 38 Vétérans 1
140 PIRENNE DAVID 539 36:53 14,15 4:14 39 Vétérans 1
141 DEFRERE OLIVIER 1253 36:54 14,14 4:14 40 Vétérans 1
142 GERON SEBASTIEN 1226 36:56 14,13 4:14 78 Séniors
143 SCHOONBROODT MANUEL 597 36:58 14,12 4:14 79 Séniors
144 QUAAS CHRISTIAN 704 36:59 14,11 4:15 14 Vétérans 2
145 PLUNUS ALAIN 546 37:01 14,10 4:15 15 Vétérans 2
146 SEBASTIANI ANTONIO 833 37:02 14,09 4:15 16 Vétérans 2
147 DUBOIS SAMUEL 246 37:02 14,09 4:15 80 Séniors
148 STEINBUSCH VINCENT 620 37:04 14,08 4:15 41 Vétérans 1
149 LAPAILLE DANIEL 536 37:04 14,08 4:15 42 Vétérans 1
150 WOOLF ALAN 695 37:06 14,07 4:15 17 Vétérans 2
151 BEUKEN DIDIER 81 37:08 14,06 4:16 18 Vétérans 2
152 SNOECK CLAUDE 1177 37:10 14,04 4:16 81 Séniors
153 LAMING KEVIN 1110 37:12 14,03 4:16 82 Séniors
154 DEKROCK PHILIPPE 984 37:14 14,02 4:16 83 Séniors
155 OPREI PETER 861 37:17 14,00 4:17 19 Vétérans 2
156 BECKERS PATRICK 66 37:20 13,98 4:17 43 Vétérans 1
157 HAPPART GREGORY 341 37:23 13,96 4:17 44 Vétérans 1
158 DEHON ARNAUD 212 37:25 13,95 4:18 84 Séniors
159 FRANCHIN LUDOVIC 821 37:26 13,94 4:18 85 Séniors
160 POLIS GREGORY 549 37:27 13,93 4:18 86 Séniors
161 PINCKAERS CHRISTOPHE 1200 37:29 13,92 4:18 87 Séniors
162 VANBRABANT RAPHAEL 653 37:31 13,91 4:18 45 Vétérans 1
163 NOIRHOMME PIERRE 667 37:32 13,90 4:18 88 Séniors
164 JUNKER HENRY-MARC 397 37:34 13,89 4:19 1 Vétérans 3
165 BREVER JEAN-FRANCOIS 116 37:38 13,87 4:19 46 Vétérans 1
166 KHAMIS SELIM 862 37:39 13,86 4:19 89 Séniors
167 AWOUTERS CEDRIC 56 37:40 13,85 4:19 90 Séniors
168 HEUSSCHEN DOMINIQUE 359 37:42 13,85 4:20 20 Vétérans 2
169 THEUNISSEN LUC 1052 37:47 13,81 4:20 91 Séniors
170 HERMANS MARC 976 37:51 13,79 4:21 21 Vétérans 2
171 MINGUET PIERRE-YVES 1145 37:52 13,78 4:21 47 Vétérans 1
172 DESSOUROUX JEAN 227 37:53 13,77 4:21 2 Vétérans 3
173 BRIDDA JOREL 819 37:56 13,76 4:21 92 Séniors
174 HUTSCHEMACKERS BERNARD 369 37:57 13,75 4:21 48 Vétérans 1
175 AGNOLI PIERRE 40 37:58 13,75 4:21 93 Séniors
176 DELSUPEXHE SEBASTIEN 204 37:59 13,74 4:22 94 Séniors
177 FRANCOIS THIBAUT 356 38:00 13,73 4:22 95 Séniors
178 KEYDENER ARNAUD 403 38:02 13,72 4:22 96 Séniors
179 CORMAN CHRISTIAN 982 38:03 13,72 4:22 97 Séniors
180 WILLEM NICOLAS 1133 38:04 13,71 4:22 98 Séniors
181 MINGUET OLIVIER 1040 38:07 13,69 4:22 99 Séniors
182 ANGE PHILIPPE 1036 38:08 13,69 4:23 100 Séniors
183 DEROUAUX MICHAEL 1193 38:09 13,68 4:23 101 Séniors
184 SEYS YVES 1252 38:11 13,67 4:23 49 Vétérans 1
185 VALOIR FRANCOIS 646 38:12 13,66 4:23 102 Séniors
186 CELLO CHRISTOPHE 135 38:12 13,66 4:23 103 Séniors
187 HARDY GREGORY 430 38:12 13,66 4:23 104 Séniors
188 FISCHER RAPHAEL 342 38:13 13,66 4:23 105 Séniors
189 BROUWIER MICHAEL 856 38:13 13,66 4:23 106 Séniors
190 ELOYE JONATHAN 261 38:14 13,65 4:23 107 Séniors
191 LIEGEOIS MANON 449 38:15 13,64 4:23 3 Dames
192 JASPAR CHRISTIAN 383 38:17 13,63 4:24 3 Vétérans 3
193 EVRARD AMAURY 269 38:17 13,63 4:24 108 Séniors
194 DEBIOLLE FREDERIC 206 38:18 13,63 4:24 109 Séniors
195 DEJOSE THIERRY 9 38:19 13,62 4:24 50 Vétérans 1
196 ERNST SAMUEL 927 38:20 13,61 4:24 110 Séniors
197 JOWAY ERIC 393 38:22 13,60 4:24 22 Vétérans 2
198 TONNEAU CORENTIN 761 38:24 13,59 4:24 111 Séniors
199 CUPERS PHILIPPE 159 38:27 13,57 4:25 51 Vétérans 1
200 RENSONNET JEAN-PHILIPPE 1084 38:29 13,56 4:25 52 Vétérans 1
201 BLESGEN VINCENT 818 38:30 13,55 4:25 53 Vétérans 1
202 REICHLING YANNICK 714 38:35 13,52 4:26 112 Séniors
203 SPAILIER OLIVIER 840 38:37 13,51 4:26 54 Vétérans 1
204 VANWERST ADRIEN 1261 38:39 13,50 4:26 6 Espoirs Garçons
205 LENSSEN PIERRE 1241 38:41 13,49 4:26 113 Séniors
206 BERGENHUIZEN EDDY 74 38:42 13,48 4:26 55 Vétérans 1
207 BOUMRAH ACHMED 941 38:44 13,48 4:27 114 Séniors
208 PETIT JEREMY 1188 38:45 13,47 4:27 115 Séniors
209 DUMOULIN PHILIPPE 249 38:46 13,46 4:27 56 Vétérans 1
210 PIERRE FABIAN 538 38:47 13,45 4:27 116 Séniors
211 TASSET CHRISTOPHE 625 38:48 13,45 4:27 117 Séniors
212 BONFOND PATRICK 97 38:49 13,45 4:27 57 Vétérans 1
213 BONNI ALEX 1113 38:49 13,44 4:27 118 Séniors
214 SCHNAKERS ARNAUD 595 38:50 13,44 4:27 119 Séniors
215 CANALES ALBERTO 130 38:51 13,43 4:27 4 Vétérans 3
216 KUMMELER CHRISTOPHE 1009 38:52 13,43 4:28 58 Vétérans 1
217 DEVILLERS ALAIN 282 38:53 13,42 4:28 23 Vétérans 2
218 FRANCOTTE PIERRE 296 38:55 13,41 4:28 120 Séniors
219 MICHEL JEAN MARC 1007 38:56 13,40 4:28 24 Vétérans 2
220 SENTE CYNTHIA 605 38:57 13,40 4:28 3 Ainées 1
221 BAGUETTE BERTRAND 858 38:59 13,39 4:28 121 Séniors
222 KERF PATRICK 400 39:00 13,38 4:29 25 Vétérans 2
223 NYSSEN PIERRE 723 39:02 13,37 4:29 59 Vétérans 1
224 FRANCHIMONT BERNARD 872 39:03 13,36 4:29 60 Vétérans 1
225 JAEGERS GREGORY 379 39:04 13,36 4:29 122 Séniors
226 SOMJA STEPHANE 1096 39:05 13,36 4:29 123 Séniors
227 WIERTZ ARNAUD 779 39:06 13,35 4:29 124 Séniors
228 MEYS CLAUDE 616 39:07 13,34 4:29 61 Vétérans 1
229 DE RIDDER OLIVIER 174 39:08 13,33 4:29 125 Séniors
230 FONTAINE SERGE 291 39:10 13,33 4:30 62 Vétérans 1
231 LOCHT CEDRIC 894 39:11 13,32 4:30 126 Séniors
232 JUDONG PHILIPPE 394 39:12 13,31 4:30 63 Vétérans 1
233 HEINEN MICHAEL 1163 39:12 13,31 4:30 127 Séniors
234 DEGUELDRE VINCENT 186 39:13 13,31 4:30 128 Séniors
235 CULOT CHRISTIAN 189 39:14 13,30 4:30 64 Vétérans 1
236 JENNES LOIC 500 39:15 13,30 4:30 129 Séniors
237 PIRARD CHRISTOPHE 1102 39:16 13,29 4:30 65 Vétérans 1
238 LACROSSE WILLIAM 1115 39:17 13,28 4:31 130 Séniors
239 BRASSEUR JONATHAN 113 39:20 13,27 4:31 131 Séniors
240 DELAVAL PIERRE-HENRI 896 39:21 13,26 4:31 66 Vétérans 1
241 DORTHU MAXIME 321 39:22 13,26 4:31 132 Séniors
242 HUBERT ERIC 1256 39:22 13,26 4:31 67 Vétérans 1
243 VONCKEN MICHEL 996 39:23 13,25 4:31 133 Séniors
244 WAUTIER JULIEN 1117 39:24 13,24 4:31 134 Séniors
245 LAOUREUX LAURENT 419 39:25 13,24 4:31 68 Vétérans 1
246 VANWERST LUCAS 963 39:25 13,24 4:31 7 Espoirs Garçons
247 DHEUR SEBASTIEN 965 39:25 13,24 4:31 8 Espoirs Garçons
248 CORNET CAROLINE 801 39:27 13,23 4:32 4 Ainées 1
249 DOYEN SEBASTIEN 986 39:29 13,22 4:32 9 Espoirs Garçons
250 DUPONT PATRICK 1080 39:31 13,21 4:32 69 Vétérans 1
251 SCHYNS PATRICK 847 39:32 13,20 4:32 70 Vétérans 1
252 THONNARD JEAN-YVES 633 39:35 13,19 4:33 26 Vétérans 2
253 SAVELBERG PASCAL 823 39:36 13,18 4:33 71 Vétérans 1
254 FROIDMONT DANIELLE 1000 39:38 13,17 4:33 1 Ainées 2
255 LAOUREUX GEOFFREY 1210 39:39 13,16 4:33 135 Séniors
256 SCHEEN PHILIPPE 733 39:40 13,16 4:33 72 Vétérans 1
257 HECK NICOLAS 442 39:41 13,15 4:33 10 Espoirs Garçons
258 JOSKIN JEAN MARC 1150 39:43 13,14 4:33 27 Vétérans 2
259 DELOYER THOMAS 202 39:44 13,13 4:34 11 Espoirs Garçons
260 CHARLIER MANUEL 1230 39:46 13,13 4:34 73 Vétérans 1
261 LONNEUX MARCEL 458 39:46 13,12 4:34 28 Vétérans 2
262 STEFFENS BENOIT 749 39:47 13,12 4:34 136 Séniors
263 LEGROS GHISLAIN 432 39:48 13,11 4:34 74 Vétérans 1
264 DESMECHT JAMES 224 39:49 13,11 4:34 75 Vétérans 1
265 LORQUET SYLVIE 741 39:50 13,10 4:34 2 Ainées 2
266 HERNANDEZ RODRIGUEZ MANUEL 354 39:51 13,10 4:34 76 Vétérans 1
267 DAVID LAURENT 1078 39:52 13,09 4:34 137 Séniors
268 KILESSE REMI 404 39:57 13,06 4:35 138 Séniors
269 DEGIVE VINCENT 15 39:58 13,06 4:35 29 Vétérans 2
270 CARABIN MARTINE 131 40:01 13,04 4:35 3 Ainées 2
271 SOLHEID LIONEL 820 40:02 13,04 4:36 139 Séniors
272 CRASSON VINCENT 923 40:03 13,03 4:36 30 Vétérans 2
273 KRICFALUSI MICHEL 916 40:04 13,02 4:36 77 Vétérans 1
274 BONFOND PHILIPPE 845 40:06 13,02 4:36 78 Vétérans 1
275 KERZMANN SEBASTIEN 841 40:08 13,01 4:36 140 Séniors
276 GOBLET LUC 1221 40:09 13,00 4:37 79 Vétérans 1
277 LEMOINE MICHEL 445 40:13 12,98 4:37 80 Vétérans 1
278 PALUMBO ROSARIO 415 40:15 12,97 4:37 141 Séniors
279 MOYSE EVELYNE 1114 40:17 12,96 4:37 4 Dames
280 GAUTHY SERGE 307 40:19 12,94 4:38 81 Vétérans 1
281 MARANGUNE MARCO 918 40:21 12,94 4:38 31 Vétérans 2
282 FAUTRE JEAN-CLAUDE 922 40:22 12,93 4:38 32 Vétérans 2
283 ROEX RAPHAEL 1211 40:23 12,92 4:38 142 Séniors
284 DUMONT ALEXIS 903 40:23 12,92 4:38 12 Espoirs Garçons
285 LEGROS AXEL 813 40:24 12,92 4:38 13 Espoirs Garçons
286 FOCKEDEY ANNE 350 40:25 12,92 4:38 5 Ainées 1
287 POPULAIRE THOMAS 1207 40:26 12,91 4:38 14 Espoirs Garçons
288 GEROMBOUX BERTRAND 363 40:27 12,90 4:39 143 Séniors
289 HENSSCHEN CHRISTINE 863 40:30 12,89 4:39 4 Ainées 2
290 VERVIER SERGE 1208 40:34 12,87 4:39 82 Vétérans 1
291 BAIWIR ANTHONY 57 40:35 12,86 4:39 144 Séniors
292 DUYSENS DAMIEN 1120 40:37 12,85 4:40 145 Séniors
293 BELSO MICHAEL 875 40:38 12,84 4:40 146 Séniors
294 BOVY CHRISTOPHE 960 40:40 12,83 4:40 83 Vétérans 1
295 QUAAS UWE 891 40:41 12,83 4:40 147 Séniors
296 JUSTE CHRISTIAAN 398 40:43 12,82 4:40 33 Vétérans 2
297 NIVARLET MARIE-MORGANE 658 40:47 12,80 4:41 5 Dames
298 SCHLECK CHRISTOPHE 1062 40:54 12,76 4:42 148 Séniors
299 DELNEUVILLE ERIC 200 40:56 12,75 4:42 84 Vétérans 1
300 LEMAIRE DAMIEN 972 41:02 12,72 4:43 85 Vétérans 1
301 RENSONNET RAPHAEL 567 41:04 12,71 4:43 86 Vétérans 1
302 KERIS MONIQUE 961 41:05 12,70 4:43 5 Ainées 2
303 BIEMAR CHRISTIAN 42 41:07 12,69 4:43 87 Vétérans 1
304 PIEDBOEUF BERTRAND 1194 41:08 12,69 4:43 149 Séniors
305 ERNST ANDRE 265 41:10 12,68 4:43 34 Vétérans 2
306 LEFEBVRE LUC 1049 41:10 12,68 4:43 88 Vétérans 1
307 DEMOULIN ANNE-SOPHIE 251 41:14 12,66 4:44 6 Ainées 1
308 HEINRICHS GREGORY 346 41:15 12,65 4:44 150 Séniors
309 CARL ROGER 937 41:16 12,64 4:44 5 Vétérans 3
310 SOMJA JEROME 885 41:17 12,64 4:44 151 Séniors
311 VOSS JEAN-LOUIS 673 41:18 12,64 4:44 6 Vétérans 3
312 MICHEL ANTOINE 1121 41:19 12,63 4:45 152 Séniors
313 VANWERST BRUNO 1260 41:20 12,63 4:45 89 Vétérans 1
314 DEMONCEAU HENRI 215 41:23 12,61 4:45 35 Vétérans 2
315 JONLET YVES 998 41:24 12,61 4:45 36 Vétérans 2
316 TERF MICHEL 755 41:26 12,60 4:45 37 Vétérans 2
317 EMONTS-GAST JOANNE 973 41:27 12,59 4:45 6 Dames
318 HALLEUX ERIC 336 41:28 12,59 4:46 153 Séniors
319 CHAPELIER BOB 939 41:29 12,58 4:46 90 Vétérans 1
320 JENNES JEAN-FRANCOIS 498 41:31 12,57 4:46 154 Séniors
321 LARBUISSON JESSICA 881 41:32 12,57 4:46 7 Dames
322 GRUSELIN STEVE 329 41:33 12,56 4:46 155 Séniors
323 MASSAU LAURENT 1065 41:34 12,56 4:46 156 Séniors
324 BRANCE JOSE 103 41:34 12,55 4:46 91 Vétérans 1
325 DIRICK JULIEN 301 41:34 12,55 4:46 157 Séniors
326 LECLERCQ SABRINA 699 41:35 12,55 4:46 7 Ainées 1
327 AGUS PAOLO 41 41:36 12,55 4:46 92 Vétérans 1
328 COLSON LESLIE 1217 41:37 12,54 4:47 93 Vétérans 1
329 CHARPENTIER RACHEL 978 41:38 12,53 4:47 8 Ainées 1
330 GENICOT ALEXIS 878 41:39 12,53 4:47 158 Séniors
331 GOEZ PATRICK 979 41:40 12,52 4:47 94 Vétérans 1
332 LIEGEOIS SYLVAIN 584 41:42 12,52 4:47 159 Séniors
333 VALEMBOIS QUENTIN 1034 41:42 12,51 4:47 160 Séniors
334 PIRARD PHILIPPE 1156 41:44 12,51 4:47 161 Séniors
335 BRASSINE BENOIT 895 41:45 12,50 4:48 95 Vétérans 1
336 DONY OLIVIER 1132 41:47 12,49 4:48 162 Séniors
337 VAN HEUSDEN GEOFFREY 790 41:48 12,48 4:48 163 Séniors
338 OUADNOUNI SOFIAN 711 41:49 12,48 4:48 15 Espoirs Garçons
339 VANDER HEYDEN CLAIRE 603 41:50 12,47 4:48 6 Ainées 2
340 LESECQUE STEPHANE 1255 41:52 12,47 4:48 38 Vétérans 2
341 REMACLE CEDRIC 814 41:52 12,46 4:48 164 Séniors
342 HARDY MARC 437 41:54 12,46 4:49 96 Vétérans 1
343 DEL-FAVERO AURELIE 890 41:55 12,45 4:49 8 Dames
344 MARCOTTY CEDRIC 1031 41:57 12,44 4:49 97 Vétérans 1
345 BIET NANA 1181 41:57 12,44 4:49 7 Ainées 2
346 LORQUET SARAH 462 41:58 12,44 4:49 9 Dames
347 COUSSAERT PATRICK 1077 41:59 12,43 4:49 98 Vétérans 1
348 SERVAIS FABRICE 745 42:00 12,42 4:49 165 Séniors
349 JACQUET BENOIT 956 42:02 12,42 4:49 99 Vétérans 1
350 WERY MICHEL 687 42:03 12,41 4:50 39 Vétérans 2
351 LAMBERT CHRISTOPHE 413 42:04 12,40 4:50 166 Séniors
352 ROBINET DANY 577 42:05 12,40 4:50 167 Séniors
353 OUADNOUNI M BAREK 529 42:06 12,39 4:50 100 Vétérans 1
354 DEMONCEAU NATHALIE 1222 42:07 12,39 4:50 9 Ainées 1
355 JAMAR JULIEN 380 42:08 12,39 4:50 168 Séniors
356 LAMING MARY 1064 42:08 12,39 4:50 10 Dames
357 COLLARD GEORGY 1123 42:09 12,38 4:50 169 Séniors
358 RITROVATO SYLVAIN 575 42:10 12,38 4:50 101 Vétérans 1
359 SIMONIS ROBIN 964 42:11 12,37 4:50 16 Espoirs Garçons
360 HOCK MICHAEL 468 42:12 12,37 4:51 170 Séniors
361 SOMJA VICTOR 854 42:13 12,36 4:51 40 Vétérans 2
362 BEKKAR WAHIB 70 42:14 12,36 4:51 171 Séniors
363 CHOJNACKI OLIVIER 866 42:16 12,35 4:51 102 Vétérans 1
364 BEUKEN EDOUARD 848 42:17 12,34 4:51 41 Vétérans 2
365 CLERFAYS HUBERT 142 42:18 12,34 4:51 7 Vétérans 3
366 DETRY OLIVIER 233 42:19 12,33 4:51 103 Vétérans 1
367 GILLON ARNAUD 1111 42:20 12,33 4:52 172 Séniors
368 WINTGENS MARLENE 784 42:21 12,32 4:52 11 Dames
369 FEYTMANS BERNARD 1116 42:22 12,32 4:52 173 Séniors
370 CAPOCCI JEAN BAPTISTE 877 42:22 12,32 4:52 174 Séniors
371 ACEDO SANCHO CARLOS 38 42:23 12,31 4:52 104 Vétérans 1
372 DEMONCEAU RACHEL 213 42:25 12,30 4:52 10 Ainées 1
373 CHAUVEHEID CEDRIC 1213 42:27 12,30 4:52 175 Séniors
374 WINTGENS SOPHIE 691 42:28 12,29 4:52 12 Dames
375 LAMY STEPHANIE 416 42:29 12,29 4:53 11 Ainées 1
376 THONNARD EMILIE 634 42:30 12,28 4:53 2 Espoirs Filles
377 BYLEVELD AURORE 126 42:31 12,28 4:53 13 Dames
378 FONTAINE GREGORY 1267 42:33 12,27 4:53 176 Séniors
379 MOUILLARD JOHN 1057 42:33 12,26 4:53 177 Séniors
380 VAESSEN TANGUY 921 42:34 12,26 4:53 178 Séniors
381 FILEE FABIAN 1119 42:34 12,26 4:53 179 Séniors
382 KEVER PASCAL 931 42:36 12,25 4:53 105 Vétérans 1
383 PLUNUS SONIA 545 42:39 12,23 4:54 1 Ainées 3
384 RENNOTTE CHRISTIAN 1046 42:41 12,23 4:54 180 Séniors
385 DETHIER GILLES 876 42:42 12,22 4:54 181 Séniors
386 MANSET ADELINE 474 42:43 12,22 4:54 14 Dames
387 DORTHU MICHEL 943 42:45 12,21 4:54 42 Vétérans 2
388 RADERMECKER ISABELLE 558 42:45 12,21 4:54 12 Ainées 1
389 HEYERES LUCAS 1045 42:46 12,20 4:55 17 Espoirs Garçons
390 BELLEFLAMME SERGE 72 42:47 12,20 4:55 106 Vétérans 1
391 ROUFOSSE BASILE 1160 42:54 12,17 4:55 18 Espoirs Garçons
392 DELHEZ ARTHUR 1195 42:55 12,16 4:56 19 Espoirs Garçons
393 COLIN JEAN-LOUIS 144 42:57 12,15 4:56 8 Vétérans 3
394 STASSEN BENJAMIN 967 42:58 12,15 4:56 182 Séniors
395 LIEGEOIS JEAN 450 43:03 12,12 4:56 43 Vétérans 2
396 WERGIFOSSE JACKY 825 43:04 12,12 4:57 9 Vétérans 3
397 SOMJA JEAN PHILIPPE 613 43:05 12,11 4:57 183 Séniors
398 DEMOL CINDY 211 43:07 12,11 4:57 13 Ainées 1
399 MERLY ALAIN 1103 43:10 12,09 4:57 184 Séniors
400 DELLEUR ELODIE 919 43:12 12,08 4:57 15 Dames
401 DETAILLE JONATHAN 1039 43:13 12,07 4:58 185 Séniors
402 SICIM MUSTAFA 1047 43:15 12,07 4:58 107 Vétérans 1
403 COLLINGS PASCAL 1075 43:17 12,06 4:58 186 Séniors
404 DISTEFANO GIUSEPPE 971 43:24 12,03 4:59 187 Séniors
405 MEYERS LUC 827 43:25 12,02 4:59 108 Vétérans 1
406 LEYENS GERALD 579 43:26 12,01 4:59 188 Séniors
407 DEGEE SIMON 184 43:28 12,01 4:59 189 Séniors
408 GOOR SYLVIANE 389 43:29 12,00 4:59 14 Ainées 1
409 CANISIUS OLIVIER 1250 43:34 11,98 5:00 109 Vétérans 1
410 HARDY GEOFFREY 949 43:36 11,97 5:00 110 Vétérans 1
411 DE LEO PASCAL 30 43:37 11,97 5:00 10 Vétérans 3
412 PIANCATELLI PAOLO 1101 43:38 11,96 5:00 44 Vétérans 2
413 DE MARCO ERIC 205 43:39 11,95 5:01 111 Vétérans 1
414 DONNEAU BENOIT 311 43:41 11,95 5:01 190 Séniors
415 VOISIN HELENE 671 43:42 11,94 5:01 8 Ainées 2
416 DIET FABRICE 959 43:43 11,94 5:01 112 Vétérans 1
417 DENOOZ AXEL 952 43:50 11,91 5:02 113 Vétérans 1
418 NOLS LUDOVIC 524 43:52 11,90 5:02 191 Séniors
419 JORIS JULIEN 1264 43:53 11,89 5:02 192 Séniors
420 DUVIVIER MARC 253 43:54 11,89 5:02 45 Vétérans 2
421 BADENBERG BERNARD 53 43:55 11,88 5:02 114 Vétérans 1
422 CHEBIL RAMI 139 43:57 11,88 5:03 193 Séniors
423 WISLEZ FREDDY 694 43:58 11,87 5:03 11 Vétérans 3
424 DOBBELSTEIN JACKY 945 43:59 11,86 5:03 46 Vétérans 2
425 MEINGUET LAURENT 610 44:01 11,86 5:03 115 Vétérans 1
426 MOURANT FRANCK 631 44:03 11,85 5:03 194 Séniors
427 DEWIL JEAN 1088 44:05 11,84 5:04 47 Vétérans 2
428 DESSART JEAN YVES 987 44:06 11,84 5:04 195 Séniors
429 BAGUETTE CAROLINE 1037 44:07 11,83 5:04 15 Ainées 1
430 FAFCHAMPS ISA 1043 44:08 11,83 5:04 16 Ainées 1
431 DUPUIS GAETAN 698 44:08 11,82 5:04 196 Séniors
432 RENNOTTE RAPHAEL 715 44:09 11,82 5:04 197 Séniors
433 GEORGES MICHAEL 362 44:10 11,82 5:04 198 Séniors
434 PHILIPPE AUDREY 693 44:11 11,81 5:04 16 Dames
435 TEMPELS ALAIN 627 44:12 11,81 5:04 48 Vétérans 2
436 HERZET MIREILLE 457 44:14 11,80 5:05 9 Ainées 2
437 VIEILLEVOYE ALAIN 1203 44:15 11,79 5:05 49 Vétérans 2
438 ERNST MARGAUX 1105 44:16 11,79 5:05 3 Espoirs Filles
439 GURALNIK STEPHAN 425 44:18 11,78 5:05 199 Séniors
440 WILKET MICHEL 781 44:19 11,77 5:05 116 Vétérans 1
441 LEMAIRE ANNE 989 44:21 11,77 5:05 17 Ainées 1
442 CASTELA CERRO DELPHINE 149 44:22 11,76 5:06 17 Dames
443 ANELLO ANGELO 1118 44:26 11,74 5:06 200 Séniors
444 BALTUS JOSE 58 44:28 11,74 5:06 12 Vétérans 3
445 JORIS VINCENT 1238 44:30 11,73 5:06 201 Séniors
446 CHARLIER FRANCE 1098 44:31 11,72 5:07 18 Ainées 1
447 PONSARD GUY 551 44:32 11,72 5:07 50 Vétérans 2
448 HUBAUT STEVEN 1180 44:33 11,71 5:07 202 Séniors
449 HENNEN ANNE-FRANCOISE 1006 44:35 11,71 5:07 19 Ainées 1
450 VAN RANDERAAT MARTINE 1169 44:37 11,70 5:07 20 Ainées 1
451 DEPRESSEUX NICOLAS 1170 44:39 11,69 5:07 203 Séniors
452 HENNIQUIAN JEAN-SEBASTIEN 1122 44:40 11,69 5:08 204 Séniors
453 EL BALDI HINDE 799 44:41 11,68 5:08 4 Espoirs Filles
454 EL BALDI SAID 258 44:42 11,67 5:08 117 Vétérans 1
455 PIROTTON DIDIER 701 44:43 11,67 5:08 118 Vétérans 1
456 REGNIER ANNE-SOPHIE 710 44:48 11,65 5:09 18 Dames
457 MOTTARD SOPHIE 8 44:50 11,64 5:09 21 Ainées 1
458 TYCHON FRANCOISE 1242 44:52 11,63 5:09 10 Ainées 2
459 VERVIER PATRICK 1209 44:56 11,62 5:09 119 Vétérans 1
460 BONAVENTURE THIERRY 96 44:57 11,61 5:10 120 Vétérans 1
461 DUBOIS PASCAL 332 44:58 11,61 5:10 205 Séniors
462 CARCILLO CHRISTOPHE 143 44:59 11,60 5:10 206 Séniors
463 WYZEN CHRISTEL 1130 45:00 11,60 5:10 22 Ainées 1
464 MULLENDERS JOSEPH 846 45:02 11,59 5:10 51 Vétérans 2
465 BOHN CHRISTOPHE 888 45:06 11,57 5:11 207 Séniors
466 DOSSERAY FREDERIC 243 45:07 11,57 5:11 208 Séniors
467 JORIS DAVID 915 45:09 11,56 5:11 209 Séniors
468 MAGNETTE YVES 470 45:10 11,56 5:11 52 Vétérans 2
469 MOSSOUX PHILIPPE 508 45:11 11,55 5:11 53 Vétérans 2
470 ERNST JUSTINE 804 45:12 11,55 5:11 5 Espoirs Filles
471 COLSON GEOFFREY 173 45:14 11,54 5:11 210 Séniors
472 LECLERCQ XAVIER 18 45:15 11,53 5:12 211 Séniors
473 SCHMETZ CHRISTEL 734 45:16 11,53 5:12 23 Ainées 1
474 BUTZ PIERRETTE 124 45:17 11,52 5:12 11 Ainées 2
475 BRENNENRAEDTS FREDERIC 1239 45:19 11,52 5:12 212 Séniors
476 MEYS BERNARD 497 45:20 11,51 5:12 121 Vétérans 1
477 ERNST BERNARD 264 45:21 11,51 5:12 122 Vétérans 1
478 RENAERS STEPHANE 562 45:23 11,50 5:13 123 Vétérans 1
479 VAN DE WIELE CHANTAL 648 45:24 11,49 5:13 12 Ainées 2
480 LINCE GUY 452 45:25 11,49 5:13 54 Vétérans 2
481 MIGNON PHILIPPE 628 45:27 11,48 5:13 124 Vétérans 1
482 MATHIEU BERNARD 1026 45:27 11,48 5:13 55 Vétérans 2
483 D'AFFNAY SONIA 163 45:28 11,48 5:13 24 Ainées 1
484 REPPEN NICOLAS 570 45:29 11,47 5:13 56 Vétérans 2
485 MESTREZ ERIC 7 45:31 11,47 5:13 125 Vétérans 1
486 TONKA ARTHUR 905 45:33 11,46 5:14 20 Espoirs Garçons
487 CHRISTIAEN FRANCOIS 156 45:34 11,45 5:14 213 Séniors
488 HALLET PHILIPPE 9334 45:36 11,44 5:14 126 Vétérans 1
489 VOSS MURIEL 672 45:38 11,43 5:14 25 Ainées 1
490 COLLAS DOMINIQUE 1051 45:40 11,43 5:14 13 Ainées 2
491 GUENFOUDI AICHA 330 45:41 11,42 5:15 26 Ainées 1
492 PARIS FRANCOIS 946 45:43 11,42 5:15 214 Séniors
493 BECKERS CLEMENT 806 45:44 11,41 5:15 21 Espoirs Garçons
494 BIDOUL GIL 75 45:46 11,41 5:15 215 Séniors
495 MARION JEROME 1066 45:48 11,39 5:15 127 Vétérans 1
496 ROYEN BERTRAND 935 45:49 11,39 5:16 216 Séniors
497 SCHYNS EGIDE 1027 45:51 11,38 5:16 57 Vétérans 2
498 GRANDJEAN BENEDICTE 1182 45:51 11,38 5:16 27 Ainées 1
499 ROUFOSSE PIERROT 1161 45:52 11,38 5:16 22 Espoirs Garçons
500 MARTIN GILLES 1100 45:53 11,37 5:16 217 Séniors
501 DELSEMME ANDRE 975 45:54 11,37 5:16 128 Vétérans 1
502 VANHAEREN GUY 660 45:59 11,35 5:17 58 Vétérans 2
503 PAQUAY FABIENNE 988 46:00 11,35 5:17 28 Ainées 1
504 JOSKIN ARTHUR 1149 46:01 11,34 5:17 218 Séniors
505 WEUSTEN CEDRIC 778 46:02 11,34 5:17 219 Séniors
506 BRAGARD LAURA 1131 46:03 11,33 5:17 19 Dames
507 LEMMENS CECILE 908 46:03 11,33 5:17 29 Ainées 1
508 ENGELEN BENJAMIN 1108 46:04 11,33 5:17 220 Séniors
509 VAESSEN SOPHIE 762 46:05 11,32 5:17 20 Dames
510 SECLI MAX 744 46:07 11,32 5:18 221 Séniors
511 JONLET LIONEL 13 46:08 11,31 5:18 222 Séniors
512 BASTIN PAUL 61 46:11 11,30 5:18 13 Vétérans 3
513 GAILLARD MARC ANDRE 1158 46:12 11,29 5:18 129 Vétérans 1
514 HENQUET LOUIS 796 46:13 11,29 5:18 59 Vétérans 2
515 LAHAYE GUY 826 46:15 11,29 5:18 60 Vétérans 2
516 JEROME STEPHANE 17 46:17 11,28 5:19 130 Vétérans 1
517 WEBER GERTY 683 46:19 11,27 5:19 2 Ainées 3
518 DORMANS JEAN-LUC 830 46:20 11,26 5:19 61 Vétérans 2
519 PESSER JOSEPH 815 46:22 11,26 5:19 14 Vétérans 3
520 LAMOLINE CARINE 857 46:23 11,25 5:19 14 Ainées 2
521 LINCE FRANCOISE 586 46:24 11,25 5:20 30 Ainées 1
522 RUTTEN KELLY 832 46:25 11,25 5:20 6 Espoirs Filles
523 KOEMOTH DAVID 406 46:26 11,24 5:20 223 Séniors
524 LEURQUIN STEPHANIE 569 46:26 11,24 5:20 21 Dames
525 HUYNH GAEL 481 46:27 11,24 5:20 224 Séniors
526 KERIS ROLAND 805 46:27 11,24 5:20 131 Vétérans 1
527 BECKERS PAUL 807 46:28 11,23 5:20 132 Vétérans 1
528 JENNEN YVES 493 46:28 11,23 5:20 225 Séniors
529 DEVIVIER MARC 295 46:28 11,23 5:20 133 Vétérans 1
530 ORBAN SARAH 528 46:29 11,23 5:20 22 Dames
531 JANSON L-FRANCOIS 1184 46:29 11,23 5:20 134 Vétérans 1
532 LERUYTH CHRISTOPH 1183 46:29 11,23 5:20 135 Vétérans 1
533 VAN DE WINKEL THOMAS 763 46:31 11,22 5:20 226 Séniors
534 SERONVALLE MARTINE 879 46:33 11,21 5:21 15 Ainées 2
535 HALKIN LUCAS 822 46:35 11,20 5:21 23 Espoirs Garçons
536 JOSKIN ZENAIDE 1148 46:36 11,20 5:21 23 Dames
537 LENAERTS MURIELLE 1147 46:37 11,19 5:21 16 Ainées 2
538 RUIZ SABRINA 729 46:38 11,19 5:21 24 Dames
539 NOEL OLIVIER 16 46:38 11,19 5:21 136 Vétérans 1
540 RONKART LEON 580 46:38 11,19 5:21 15 Vétérans 3
541 ANSION ISABELLE 46 46:39 11,19 5:21 31 Ainées 1
542 GEELEN BEATRICE 309 46:39 11,19 5:21 32 Ainées 1
543 ISERENTANT CARINE 483 46:40 11,19 5:21 17 Ainées 2
544 MICHOTTE VANESSA 499 46:40 11,18 5:21 33 Ainées 1
545 LAUWERS DAVID 1013 46:41 11,18 5:22 227 Séniors
546 SCHATTENBERG ANTHONY 1012 46:42 11,18 5:22 228 Séniors
547 BASTIN VINCENT 1227 46:42 11,18 5:22 137 Vétérans 1
548 MORIANI ISABELLE 1090 46:44 11,17 5:22 34 Ainées 1
549 GEELEN NOAH 828 46:46 11,16 5:22 24 Espoirs Garçons
550 VAESSEN HELENNE 1224 46:47 11,16 5:22 18 Ainées 2
551 MARCOTTE DOMINIQUE 478 46:49 11,15 5:22 35 Ainées 1
552 REMACLE FREDERIC 816 46:50 11,14 5:23 138 Vétérans 1
553 DORTU CHRISTIAN 1168 46:51 11,14 5:23 62 Vétérans 2
554 ROUFOSSE UGO 34 46:52 11,13 5:23 139 Vétérans 1
555 ARNOLD MARIE FRANCE 1228 46:54 11,13 5:23 19 Ainées 2
556 EL BALDI FATIHA 256 46:55 11,12 5:23 36 Ainées 1
557 ABAD LAMAS PATRICIA 37 47:00 11,10 5:24 20 Ainées 2
558 BONHOMME FRANCOISE 868 47:03 11,09 5:24 37 Ainées 1
559 SMITS ALICE 924 47:05 11,09 5:24 25 Dames
560 GIUST OLIVIER 378 47:08 11,07 5:25 229 Séniors
561 LONNEUX CEDRIC 839 47:15 11,04 5:25 230 Séniors
562 VANAUBEL AMANDINE 764 47:17 11,04 5:26 26 Dames
563 HERMAN SYLVIANE 353 47:18 11,03 5:26 21 Ainées 2
564 DUBRU DOMINIQUE 247 47:19 11,03 5:26 22 Ainées 2
565 LAHAYE SYLVIE 1190 47:20 11,03 5:26 38 Ainées 1
566 HERTAY FRANCOISE 451 47:21 11,02 5:26 39 Ainées 1
567 DI PRIMA FLAVIO 1199 47:23 11,02 5:26 140 Vétérans 1
568 SARLET JULIE 732 47:24 11,01 5:26 27 Dames
569 WYZEN LAURENT 786 47:25 11,01 5:27 231 Séniors
570 POLYS RAPHAEL 1126 47:27 11,00 5:27 232 Séniors
571 PLOEMMEN JANINE 1050 47:28 10,99 5:27 23 Ainées 2
572 DELWAIDE ANNE 209 47:29 10,99 5:27 24 Ainées 2
573 LEMAITRE CHRISTINE 1259 47:30 10,99 5:27 40 Ainées 1
574 JACOB LAURENT 492 47:31 10,98 5:27 141 Vétérans 1
575 TERWAGNE PIERRE 756 47:32 10,98 5:27 233 Séniors
576 BRIAN AURELIE 117 47:35 10,97 5:28 28 Dames
577 HUTSCHEMACKERS GUY 1058 47:36 10,96 5:28 16 Vétérans 3
578 CAPIER JEAN-MARIE 197 47:38 10,96 5:28 17 Vétérans 3
579 BONIVER NANCY 31 47:38 10,96 5:28 41 Ainées 1
580 SCHOLTIS EDOUARD 974 47:39 10,95 5:28 142 Vétérans 1
581 CORMAN OLIVIER 1185 47:42 10,94 5:28 234 Séniors
582 LEVAUX MORGANE 578 47:43 10,94 5:29 29 Dames
583 DOSIN JACQUES 1262 47:44 10,94 5:29 143 Vétérans 1
584 RENARD LAURENCE 1055 47:45 10,93 5:29 42 Ainées 1
585 LAMBERT HENRI 533 47:46 10,93 5:29 144 Vétérans 1
586 PIRON HELENE 1151 47:47 10,92 5:29 30 Dames
587 SIMONS JENNIFER 1074 47:48 10,92 5:29 31 Dames
588 FLAS EVELYNE 287 47:49 10,91 5:29 32 Dames
589 VANDEGAAR TONY 655 47:50 10,91 5:29 18 Vétérans 3
590 BONTEN FRANCOIS 1269 47:53 10,90 5:30 25 Espoirs Garçons
591 ERNST VICTOR 1270 47:54 10,90 5:30 26 Espoirs Garçons
592 STEINWEG DIDIER 1240 47:55 10,89 5:30 145 Vétérans 1
593 STABEL PHILIPPE 618 47:56 10,89 5:30 146 Vétérans 1
594 FRANSSEN ANNETTE 1032 47:57 10,88 5:30 25 Ainées 2
595 KRANNEN MICHEL 1167 47:57 10,88 5:30 63 Vétérans 2
596 COMPERE GAEL 1235 47:59 10,88 5:30 235 Séniors
597 MUYTERS CHRISTIAN 514 48:00 10,87 5:31 19 Vétérans 3
598 LAHAYE YVAN 412 48:01 10,87 5:31 64 Vétérans 2
599 ANCION VALERIE 1063 48:03 10,86 5:31 43 Ainées 1
600 YANGINCI YUSUF 1038 48:06 10,85 5:31 236 Séniors
601 MERCENIER JEAN-LUC 496 48:07 10,85 5:31 147 Vétérans 1
602 DELAIRESSE GILBERT 225 48:08 10,84 5:32 1 Vétérans 4
603 GAROT JEAN-MARC 812 48:13 10,82 5:32 148 Vétérans 1
604 MATHIEU CLAUDY 486 48:14 10,82 5:32 149 Vétérans 1
605 DE WINTER MARC 1178 48:15 10,82 5:32 150 Vétérans 1
606 SOLER TONY 951 48:17 10,81 5:32 151 Vétérans 1
607 CAYZAL JOUNTHAN 1016 48:18 10,81 5:33 237 Séniors
608 CRASSON LAURENT 183 48:19 10,80 5:33 238 Séniors
609 BUVENS MURIELLE 125 48:21 10,80 5:33 26 Ainées 2
610 JONAS VINCENT 24 48:21 10,79 5:33 239 Séniors
611 MONTE MAGALI 864 48:23 10,79 5:33 33 Dames
612 LEJEUNE DAVID 553 48:24 10,78 5:33 152 Vétérans 1
613 DARTOIS FABRICE 170 48:25 10,78 5:34 153 Vétérans 1
614 REGNIER DIDIER 1174 48:27 10,77 5:34 154 Vétérans 1
615 ADAM FRANCK 817 48:30 10,76 5:34 155 Vétérans 1
616 JACQUET SYLVIANE 907 48:34 10,75 5:34 44 Ainées 1
617 GETTINO LAURENT 1015 48:36 10,74 5:35 240 Séniors
618 PIRENNE MAGALI 1214 48:38 10,73 5:35 34 Dames
619 CREMERS CHRISTOPHE 26 48:41 10,72 5:35 156 Vétérans 1
620 DANTHINE YVES 933 48:42 10,72 5:35 65 Vétérans 2
621 TILMANT RAPHAEL 760 48:43 10,71 5:36 157 Vétérans 1
622 NOIRFALISE CECILE 523 48:44 10,71 5:36 45 Ainées 1
623 DIAFERIA ALEXANDRE 898 48:45 10,71 5:36 27 Espoirs Garçons
624 DIAFERIA JOSEPH 897 48:46 10,70 5:36 66 Vétérans 2
625 STINI SIRHAN 621 48:47 10,70 5:36 158 Vétérans 1
626 FRANZ ROBIN 870 48:49 10,69 5:36 28 Espoirs Garçons
627 MARCHAL AMAURY 477 48:50 10,69 5:36 241 Séniors
628 DENOZ BENJAMIN 220 48:52 10,68 5:37 242 Séniors
629 GUILLAUME ANNE 869 48:54 10,67 5:37 46 Ainées 1
630 BRAGARD CHANTAL 109 48:55 10,67 5:37 27 Ainées 2
631 BEMELMANS PIERRE 19 48:56 10,66 5:37 159 Vétérans 1
632 BEMELMANS THEO 867 48:58 10,66 5:37 29 Espoirs Garçons
633 ROGISTER FRANCIS 1201 48:59 10,65 5:37 160 Vétérans 1
634 LATINIS CINDY 1165 49:01 10,65 5:38 35 Dames
635 HARDY VIRGINIE 995 49:04 10,64 5:38 36 Dames
636 FITSCHY YVAN 802 49:06 10,63 5:38 161 Vétérans 1
637 ALLELYN BERNARD 842 49:11 10,61 5:39 162 Vétérans 1
638 DUMOULIN JEAN-LUC 248 49:12 10,61 5:39 163 Vétérans 1
639 ERNST WILLIAM 1215 49:13 10,60 5:39 2 H Sans Cat
640 PHILIPPART CHARLES 1263 49:14 10,60 5:39 164 Vétérans 1
641 DEMOLIN GAUTIER 1268 49:14 10,60 5:39 165 Vétérans 1
642 FRAIKIN PATRICE 880 49:15 10,60 5:39 67 Vétérans 2
643 SIMONIS MATHIEU 608 49:15 10,60 5:39 243 Séniors
644 CLOSE GEOFFREY 1106 49:15 10,60 5:39 244 Séniors
645 BERODE JEROME 77 49:16 10,60 5:39 166 Vétérans 1
646 BELBOOM ANDRÉ 954 49:16 10,59 5:39 167 Vétérans 1
647 BELBOOM LOUIS 953 49:16 10,59 5:39 30 Espoirs Garçons
648 BAART SYLVIANE 50 49:17 10,59 5:39 28 Ainées 2
649 DORMAL CATHERINE 320 49:17 10,59 5:39 47 Ainées 1
650 STASSEN BERENGERE 966 49:18 10,59 5:40 37 Dames
651 CREMER CHRISTELLE 185 49:20 10,58 5:40 38 Dames
652 ERNEST BERT 860 49:26 10,56 5:41 68 Vétérans 2
653 PINCKAERS BRIGITTE 811 49:28 10,55 5:41 3 Ainées 3
654 GENOT OLIVIER 837 49:29 10,55 5:41 168 Vétérans 1
655 FAFCHAMPS CHRISTINE 936 49:29 10,55 5:41 48 Ainées 1
656 TASQUIN NANCY 1010 49:31 10,54 5:41 49 Ainées 1
657 CASTELLI CATHERINE 958 49:33 10,53 5:41 39 Dames
658 VANDENHOVE CHRISTIAN 884 49:33 10,53 5:41 69 Vétérans 2
659 GUERRERO NATACHA 1071 49:34 10,53 5:41 50 Ainées 1
660 ERNST SAMUEL 910 49:35 10,53 5:41 245 Séniors
661 HOCHSTENBACH SABINE 843 49:36 10,52 5:42 51 Ainées 1
662 BECKERS ANNE FRANCOISE 844 49:38 10,52 5:42 52 Ainées 1
663 FUNCKEN FRANCOISE 300 49:39 10,51 5:42 53 Ainées 1
664 SCHWAIGER YVES 602 49:40 10,51 5:42 169 Vétérans 1
665 HAKIN JEROME 1069 49:42 10,50 5:42 246 Séniors
666 BEIJER JONATHAN 1014 49:43 10,50 5:42 247 Séniors
667 DELREZ SANDRA 238 49:44 10,50 5:43 29 Ainées 2
668 FERNANDEZ JUAN 855 49:45 10,49 5:43 31 Espoirs Garçons
669 WEBER GILBERTE 682 49:45 10,49 5:43 4 Ainées 3
670 PIRENNE MARJORIE 1191 49:52 10,47 5:43 40 Dames
671 HAMERS HARRIE 808 50:00 10,44 5:44 20 Vétérans 3
672 LO PRESTI CHRISTINA 1257 50:07 10,42 5:45 41 Dames
673 WISLEZ SANDRA 785 50:10 10,41 5:45 42 Dames
674 MONIE ANTOINE 1134 50:11 10,40 5:46 248 Séniors
675 RENARDY MANDY 1272 50:13 10,39 5:46 43 Dames
676 DEDEE CLAUDINE 180 50:14 10,39 5:46 30 Ainées 2
677 FRANSSENS NICOLAS 358 50:16 10,38 5:46 249 Séniors
678 KUMMELER STEPHANIE 527 50:19 10,37 5:47 54 Ainées 1
679 VAN LAAR CHRISTINE 652 50:20 10,37 5:47 31 Ainées 2
680 DUBOIS AURELIE 1070 50:22 10,36 5:47 44 Dames
681 FRYNS GILBERT 299 50:26 10,35 5:47 21 Vétérans 3
682 HOSSAY VALERIE 889 50:27 10,35 5:47 45 Dames
683 MILER PASCAL 1266 50:29 10,34 5:48 170 Vétérans 1
684 HENRY EMMANUEL 351 50:30 10,34 5:48 171 Vétérans 1
685 UMMELS PASCAL 914 50:31 10,33 5:48 172 Vétérans 1
686 HENRY PHILIPPE 1229 50:32 10,33 5:48 70 Vétérans 2
687 LOUVIAUX CINDY 464 50:33 10,32 5:48 55 Ainées 1
688 MASSON PASCALE 485 50:34 10,32 5:48 32 Ainées 2
689 DENIS MADELINE 216 50:35 10,32 5:48 46 Dames
690 CLAVIER MARIANELA 1220 50:38 10,31 5:49 47 Dames
691 STEMBERT LAETITIA 750 50:40 10,30 5:49 48 Dames
692 FINCK PATRICIA 284 50:43 10,29 5:49 33 Ainées 2
693 TONKA SABINE 829 50:47 10,28 5:50 56 Ainées 1
694 DELCOUR SYLVIANE 226 50:49 10,27 5:50 49 Dames
695 LUCASSE MARIE JOSEE 926 50:50 10,27 5:50 5 Ainées 3
696 HENSEN JULIE 1081 50:52 10,26 5:50 7 Espoirs Filles
697 HENSEN STEPHANE 1083 50:53 10,26 5:50 173 Vétérans 1
698 DELHAES CLAIRE 1216 50:55 10,25 5:51 50 Dames
699 VINCENT PHILIPPE 942 50:56 10,25 5:51 71 Vétérans 2
700 HAAS GENEVIEVE 831 50:57 10,24 5:51 34 Ainées 2
701 NAEDENOEN GREGORY 970 50:58 10,24 5:51 250 Séniors
702 CREMERS MONIQUE 962 51:09 10,21 5:52 35 Ainées 2
703 GEURTEN FRANCOISE 1022 51:21 10,16 5:54 57 Ainées 1
704 ERNST RENE 1212 51:22 10,16 5:54 3 H Sans Cat
705 MAGER CHRISTELLE 969 51:24 10,16 5:54 58 Ainées 1
706 MOLTERA LAURA 1164 51:25 10,15 5:54 51 Dames
707 JACQUET COROLINE 909 51:28 10,14 5:55 52 Dames
708 ALESSIO SANDRA 1095 51:33 10,12 5:55 59 Ainées 1
709 PAULUS PAULINE 993 51:35 10,12 5:55 53 Dames
710 HEUTS ANTOINE 913 51:36 10,12 5:55 32 Espoirs Garçons
711 VERVIER MARTINE 1044 51:37 10,11 5:56 60 Ainées 1
712 DELHEZ ZACHARIE 1005 51:37 10,11 5:56 33 Espoirs Garçons
713 RADERMECKER MARIE-ANNE 556 51:38 10,11 5:56 36 Ainées 2
714 VISSOUL DENIS 1097 51:39 10,10 5:56 251 Séniors
715 ERNST FRANCOIS 1087 51:40 10,10 5:56 252 Séniors
716 WELLIQUET PHILIPPE 1236 51:41 10,10 5:56 253 Séniors
717 DELHEZ THEO 1004 51:42 10,10 5:56 34 Espoirs Garçons
718 HANSEN FRANCOIS 809 51:42 10,09 5:56 254 Séniors
719 LEJEUNE GEOFFREY 1076 51:42 10,09 5:56 255 Séniors
720 LAMINE OLIVIER 1237 51:43 10,09 5:56 256 Séniors
721 HENNICO CHRISTINE 1018 51:44 10,09 5:56 54 Dames
722 PUTTERS NICOLE 1061 51:44 10,09 5:56 37 Ainées 2
723 NOEL DANY 991 51:45 10,09 5:56 72 Vétérans 2
724 PIRENNE CARINE 1060 51:45 10,08 5:56 61 Ainées 1
725 BOUHON MICHEL 104 51:47 10,08 5:57 73 Vétérans 2
726 CHEFNEUX LUDOVIC 151 51:48 10,08 5:57 257 Séniors
727 VENERUZ MAURO 767 52:06 10,02 5:59 258 Séniors
728 RIVEIRO MARIE-ANGE 892 52:08 10,01 5:59 38 Ainées 2
729 LEMOINE ALINE 563 52:10 10,00 5:59 62 Ainées 1
730 HURDEBISE VALERIE 476 52:13 10,00 6:00 63 Ainées 1
731 LEVEQUE LYDIE 1067 52:18 9,98 6:00 55 Dames
732 DELHEZ VINCENT 1003 52:20 9,97 6:00 174 Vétérans 1
733 DEWANDRE NICOLAS 900 52:22 9,97 6:01 35 Espoirs Garçons
734 PREUMONT MICHEL 555 52:26 9,95 6:01 22 Vétérans 3
735 CRANSHOF BENOIT 1202 52:28 9,95 6:01 259 Séniors
736 FREDERICK LAURENT 1124 52:31 9,94 6:02 260 Séniors
737 VANDERHEYDEN ISABELLE 901 52:34 9,93 6:02 39 Ainées 2
738 MALTA NICOLAS 1023 52:40 9,91 6:03 36 Espoirs Garçons
739 MALTA BENOIT 1024 52:41 9,91 6:03 175 Vétérans 1
740 ZANGERLE BRIGITTE 395 52:46 9,89 6:03 40 Ainées 2
741 LIEGEOIS LOUISE 1173 52:48 9,89 6:04 56 Dames
742 JORIS JEAN-LUC 1232 52:51 9,88 6:04 23 Vétérans 3
743 DORTHU LAURA 944 52:52 9,87 6:04 57 Dames
744 BRAUWERS CLAUDE 911 52:53 9,87 6:04 176 Vétérans 1
745 SOCIU DENIS 1025 52:54 9,86 6:04 37 Espoirs Garçons
746 HEUTS PATRICK 912 52:56 9,86 6:05 177 Vétérans 1
747 KUMMELER HUBERT 824 52:57 9,86 6:05 24 Vétérans 3
748 MAQUINAY FELICIEN 475 52:58 9,85 6:05 74 Vétérans 2
749 COLIN FREDERIC 166 52:59 9,85 6:05 178 Vétérans 1
750 DELHEZ BENOIT 1205 53:00 9,85 6:05 179 Vétérans 1
751 COLIN SOPHIE 1204 53:01 9,84 6:05 64 Ainées 1
752 ERNOULD MARIE 262 53:08 9,82 6:06 58 Dames
753 ERNOULD FRANCIS 263 53:09 9,82 6:06 25 Vétérans 3
754 WATHELET STEPHANIE 23 53:09 9,82 6:06 65 Ainées 1
755 DENOEL ESTELLE 836 53:12 9,81 6:06 66 Ainées 1
756 HALLEUX DELPHINE 1159 53:18 9,79 6:07 59 Dames
757 DETRY PHILIPPE 232 53:19 9,79 6:07 75 Vétérans 2
758 HURLET BERNARD 368 53:25 9,77 6:08 26 Vétérans 3
759 SIMONS ISABELLE 1231 53:45 9,71 6:10 67 Ainées 1
760 THEATE VINCENT 1011 53:47 9,70 6:10 261 Séniors
761 PELZER LAETITIA 1092 53:47 9,70 6:11 60 Dames
762 APPELIANE FABIENNE 48 53:48 9,70 6:11 68 Ainées 1
763 LETESSON MARINE 568 53:49 9,70 6:11 61 Dames
764 PERPETE ANNE-MARIE 1008 53:51 9,69 6:11 6 Ainées 3
765 LOHAY FREDERIC 587 53:55 9,68 6:11 262 Séniors
766 HENNICO MONIQUE 1017 54:00 9,67 6:12 7 Ainées 3
767 VINCKENBOSCH NATHALIE 370 54:01 9,66 6:12 69 Ainées 1
768 SACRE VERONIQUE 1189 54:02 9,66 6:12 70 Ainées 1
769 INCONNU INCONNU 882 54:03 9,65 0
770 INCONNU INCONNU 883 54:04 9,65 0
771 CAUCHETEUX ISABELLE 134 54:06 9,65 6:13 71 Ainées 1
772 ZLATICS ANUSKA 787 54:07 9,64 6:13 72 Ainées 1
773 LEVEQUE GERALDINE 1068 54:11 9,63 6:13 73 Ainées 1
774 PAQUAY ELIANE 1196 54:26 9,59 6:15 41 Ainées 2
775 LAMBERT AUDELINE 1219 54:29 9,58 6:15 62 Dames
776 DUBRU JEAN-PHILIPPE 1175 54:32 9,57 6:16 263 Séniors
777 SCHMETZ LOUIS 932 54:43 9,54 6:17 2 Vétérans 4
778 BONNI THIERRY 1186 54:47 9,53 6:17 180 Vétérans 1
779 BRANDT ARLETTE 112 54:55 9,50 6:18 8 Ainées 3
780 BASTIN AURELIE 63 54:56 9,50 6:18 63 Dames
781 WILKIN ANDRE 690 54:58 9,50 6:19 27 Vétérans 3
782 STRIVAY MARIE 1030 55:04 9,48 6:19 74 Ainées 1
783 WYZEN JEOFFREY 1166 55:08 9,47 6:20 264 Séniors
784 TARCHAMPS ERIC 1176 55:13 9,45 6:20 181 Vétérans 1
785 LEONARD EMILIE 1171 55:16 9,44 6:21 64 Dames
786 HAUGLUSTAINE JEROME 1172 55:17 9,44 6:21 265 Séniors
787 LAHAYE LUCILLE 997 55:18 9,44 6:21 8 Espoirs Filles
788 HABETS AMELIE 1109 55:31 9,40 6:22 65 Dames
789 PIRENNE CLAUDINE 1107 55:33 9,40 6:23 42 Ainées 2
790 VANDEHEYDEN VIVIANE 929 55:35 9,39 6:23 75 Ainées 1
791 BASTIN FLORINE 65 55:41 9,37 6:24 66 Dames
792 OLIVIER ALAIN 992 55:43 9,37 6:24 76 Vétérans 2
793 LOVENBERG GUY 465 55:46 9,36 6:24 77 Vétérans 2
794 LEMPEREUR PATRICE 446 55:56 9,33 6:25 28 Vétérans 3
795 GAILLARD JEROME 360 56:03 9,31 6:26 266 Séniors
796 ERNST MARIE 981 56:05 9,31 6:26 67 Dames
797 OURY SOPHIE 1085 56:07 9,30 6:27 76 Ainées 1
798 HUYGHEBAERT LAURIE 873 56:09 9,30 6:27 77 Ainées 1
799 COLLIGNON GILLES 172 56:11 9,29 6:27 267 Séniors
800 SCHMITS EMILIE 736 56:14 9,28 6:27 68 Dames
801 MARTIN MYRIAM 994 56:17 9,27 6:28 43 Ainées 2
802 VERCAMMEN MICHEL 768 56:31 9,24 6:29 182 Vétérans 1
803 NICKELS DANIELLE 640 56:41 9,21 6:30 9 Ainées 3
804 POTTIER FABIENNE 552 56:46 9,19 6:31 44 Ainées 2
805 NYSSEN KATHALYN 886 56:48 9,19 6:31 78 Ainées 1
806 DODEMONT VANESSA 887 56:49 9,19 6:31 79 Ainées 1
807 STERCKX ERIC 852 56:51 9,18 6:32 78 Vétérans 2
808 BASTIN CHRISTIAN 1020 56:52 9,18 6:32 79 Vétérans 2
809 DEFAWES CHRISTELLE 1157 56:54 9,17 6:32 80 Ainées 1
810 LAHAYE VANESSA 411 56:57 9,17 6:32 81 Ainées 1
811 LABEYE DOROTHEE 1082 57:15 9,12 6:34 45 Ainées 2
812 LORQUET MARC 460 57:30 9,08 6:36 183 Vétérans 1
813 PIRARD OLIVIER 938 57:32 9,07 6:36 268 Séniors
814 SIMONS ELODIE 1073 57:37 9,06 6:37 69 Dames
815 BOUMANS KELLY 1091 57:40 9,05 6:37 82 Ainées 1
816 LACROIX VIRGINIE 871 57:42 9,05 6:38 83 Ainées 1
817 MAAG SEVERINE 1042 57:44 9,04 6:38 84 Ainées 1
818 MINGUET SOPHIE 1041 57:45 9,04 6:38 85 Ainées 1
819 LAMBERT BRIGITTE 1218 57:59 9,00 6:39 10 Ainées 3
820 LANGE CHRISTINE 417 58:04 8,99 6:40 46 Ainées 2
821 ERNST FRANCOIS 803 58:14 8,96 6:41 38 Espoirs Garçons
822 WEICKMANS ANNE 1002 58:18 8,95 6:42 86 Ainées 1
823 DARIMONT JOCELYNE 169 58:21 8,95 6:42 47 Ainées 2
824 CALIFICE HUBERTE 128 58:25 8,93 6:42 11 Ainées 3
825 HENDRICKX MAGALI 834 58:52 8,87 6:45 70 Dames
826 JENNES PATRICK 977 58:55 8,86 6:46 80 Vétérans 2
827 STASSEN CLAIRE 1093 58:57 8,85 6:46 71 Dames
828 HODY SABINE 1086 59:04 8,84 6:47 87 Ainées 1
829 FRISSCHEN JACQUES 298 59:13 8,81 6:48 3 Vétérans 4
830 SACRE EVELYNE 590 59:16 8,81 6:48 12 Ainées 3
831 DETHIER MATHILDE 1265 59:20 8,80 6:49 48 Ainées 2
832 DEWANDRE FABRICE 1144 59:26 8,78 6:49 184 Vétérans 1
833 DEPREITERE HILDEGARD 221 59:43 8,74 6:51 13 Ainées 3
834 VAN HERCK EMILIE 928 1:00:27 8,63 6:56 72 Dames
835 ERNST VICTOR 1271 1:00:39 8,61 6:58 185 Vétérans 1
836 WANGERMEZ SOPHIE 835 1:00:42 8,60 6:58 73 Dames
837 MANDIC SUZANNE 853 1:00:46 8,59 6:59 49 Ainées 2
838 HURDEBISE VANESSA 1128 1:01:17 8,52 7:02 88 Ainées 1
839 WOLFS ERIC 1125 1:01:18 8,51 7:02 186 Vétérans 1
840 PIRARD PASCALE 1127 1:02:13 8,39 7:09 89 Ainées 1
841 ROYEN MYRIAM 850 1:09:15 7,54 7:57 50 Ainées 2
842 BONAVENTURE FRANCOISE 849 1:09:16 7,54 7:57 90 Ainées 1
843 VAN LEENDERT VALERIE 851 1:09:16 7,54 7:57 91 Ainées 1
844 DEFAYS POL 182 1:23:35 6,24 9:36 1 Vétérans 5